Location: ??
(35.5090°N, 139.6783°E)
Time: 19:56:14
(UTC+00:00)

Cosmos 1025 Rocket - Pass Details

Date: 08 November 2025
Orbit: 586 x 610 km, 82.5° (Epoch: 08 December)

Event Time Altitude Azimuth Distance (km) Brightness Sun altitude
Rises 08:01:50 0° 2° (N) 2,869 6.3 -5.0°
Reaches altitude 10° 08:04:11 10° 11° (N) 1,957 5.4 -5.5°
Maximum altitude 08:08:13 37° 79° (E) 933 3.5 -6.3°
Drops below altitude 10° 08:12:12 10° 148° (SSE) 1,931 5.4 -7.1°
Sets 08:14:31 0° 156° (SSE) 2,824 6.4 -7.5°
